User: anonymous   Login
Location: *
(44.1392°N, 4.8079°E)
Time: 02:55:38
(UTC+00:00)
Language:

Cosmos 921 Rocket - Orbit

View from above orbital plane
View from above orbital plane
View from above satellite
View from above satellite

Ground track
Ground track

The orbit data is extracted from the following two-line orbital elements,

1 10096U 77055B   21268.02830680  .00000126  00000-0  15391-4 0  9998
2 10096  75.8323 106.8145 0042768 190.8330 169.1945 14.88778759394298
Epoch (UTC): 25 September 2021 00:40:45
Eccentricity: 0.0042768
inclination: 75.8323°
perigee height: 572 km
apogee height: 631 km
right ascension of ascending node: 106.8145°
argument of perigee: 190.8330°
revolutions per day: 14.88778759
mean anomaly at epoch: 169.1945°
orbit number at epoch: 39429

The dashed part of the orbit path shows where the satellite is in the earth's shadow,  

DLR